Location: Forst
(46.9333°N, 15.4333°E)
Time: 06:40:22
(UTC+00:00)

CORIOLIS - Pass Details

Date: 01 December 2020
Orbit: 818 x 839 km, 98.7° (Epoch: 18 January)

Event Time Altitude Azimuth Distance (km) Brightness Sun altitude
Rises 15:44:50 0° 144° (SE) 3,366 7.2 -5.8°
Reaches altitude 10° 15:47:15 10° 138° (SE) 2,439 6.5 -6.2°
Maximum altitude 15:52:22 45° 67° (ENE) 1,129 4.5 -7.0°
Drops below altitude 10° 15:57:32 10° 357° (N) 2,464 6.4 -7.8°
Sets 16:00:00 0° 351° (N) 3,404 7.2 -8.2°
